Home > Weather > Fort St. John > Past weeks

Flag for Canada Past Weather in Fort St. John, British Columbia, Canada — Yesterday and Last 2 Weeks

Now
72 °F

Scattered clouds.


Feels Like: 76 °F
Forecast: 43 / 69 °F
Wind: 5 mph from North

Location: Fort St John

Current Time: May 24, 2016 at 4:35:01 PM

Latest Report: May 24, 2016 at 4:00 PM


Visibility: 15 mi

Pressure: 29.74 "Hg (27.46 "Hg at 689m altitude)

Humidity: 31%

Dew Point: 39 °F

Location of Fort St. JohnLocation

Past Weather in Fort St. John — Graph

°F

Fort St. John Temperature Yesterday

Maximum temperature yesterday: 66 °F (at 4:00 PM)
Minimum temperature yesterday: 37 °F (at 4:00 AM)
Average temperature yesterday: 52 °F

High & Low Weather Summary for the Past Weeks

 TemperatureHumidityPressure
High73 °F (May 16, 1:00 PM)100% (May 20, 2:00 PM)30.50 "Hg (May 20, 2:00 PM)
Low30 °F (May 20, 5:00 AM)18% (May 14, 3:00 PM)29.74 "Hg (May 24, 4:00 AM)
Average49 °F58%30.10 "Hg
* Reported May 9 3:00 PM — May 24 3:00 PM, Fort St. John, Weather by CustomWeather, © 2016

Note: Actual official high and low records may vary slightly from our data, if they occured in-between our weather recording intervals... More about our weather records

Advertising

Fort St. John Weather History for the Previous 24 Hours

Scroll right to see more
 ConditionsComfort  
Time TempWeatherWind HumidityBarometerVisibility
3:00 PM
Tue, May 24
70 °FScattered clouds.7 mph33%29.76 "Hg15 mi
2:00 PM66 °FPassing clouds.5 mph43%29.77 "Hg15 mi
1:00 PM64 °FScattered clouds.6 mph43%29.78 "Hg15 mi
12:00 PM63 °FPartly sunny.2 mph42%29.78 "Hg15 mi
11:00 AM59 °FPartly sunny.6 mph48%29.78 "Hg15 mi
10:00 AM57 °FPartly sunny.6 mph51%29.78 "Hg15 mi
9:00 AM55 °FScattered clouds.No wind51%29.77 "Hg15 mi
8:00 AM50 °FPassing clouds.3 mph58%29.77 "Hg15 mi
7:00 AM50 °FPassing clouds.8 mph58%29.75 "Hg15 mi
6:00 AM46 °FScattered clouds.6 mph62%29.74 "Hg15 mi
5:00 AM45 °FPassing clouds.7 mph61%29.74 "Hg15 mi
4:00 AM43 °FPassing clouds.9 mph66%29.74 "Hg15 mi
3:00 AM43 °FPassing clouds.9 mph61%29.75 "Hg15 mi
2:00 AM45 °FPassing clouds.10 mph61%29.75 "Hg15 mi
1:00 AM46 °FClear.10 mph57%29.76 "Hg15 mi
12:00 AM50 °FClear.13 mph54%29.77 "Hg15 mi
11:00 PM
Mon, May 23
50 °FClear.12 mph58%29.78 "Hg15 mi
10:00 PM54 °FPassing clouds.13 mph47%29.77 "Hg15 mi
9:00 PM55 °FSunny.10 mph47%29.77 "Hg15 mi
8:00 PM61 °FSunny.10 mph42%29.76 "Hg15 mi
7:00 PM64 °FSunny.12 mph37%29.78 "Hg15 mi
6:00 PM66 °FSunny.13 mph35%29.79 "Hg15 mi
5:00 PM66 °FSunny.8 mph37%29.80 "Hg15 mi
4:00 PM66 °FSunny.10 mph40%29.81 "Hg15 mi
Weather by CustomWeather, © 2016

See weather overviewHow to use our weather pages